La Parra, Spain

4:16 PM CEST on May 23, 2017 (GMT +0200)
La Parra

Weather History for 08451 - December, 2013

Change the Weather History Date:

Tuesday, December 17, 2013

  Actual Average Record
Temperature  
Mean Temperature 57 °F -  
Max Temperature 64 °F 59 °F - ()
Min Temperature 50 °F 41 °F - ()
Degree Days  
Heating Degree Days 8    
Growing Degree Days 7 (Base 50)    
Moisture  
Dew Point 52 °F    
Average Humidity 81    
Maximum Humidity 100    
Minimum Humidity 55    
Precipitation  
Precipitation 0.08 in 0.14 in - ()
Sea Level Pressure  
Sea Level Pressure 30.32 in    
Wind  
Wind Speed 4 mph ()    
Max Wind Speed 14 mph    
Max Gust Speed -    
Visibility 6.2 miles    
Events Rain    
T = Trace of Precipitation, MM = Missing Value Source: Averaged Metar Reports

Daily Weather History Graph

Daily Weather History Graph

Search for Another Location

Airport or City:

Trip Planner

Search our weather history database for the weather conditions in past years. The results will help you decide how hot, cold, wet, or windy it might be!

Date:

Astronomy

Dec. 17, 2013 Rise Set
Actual Time 8:30 AM CET 6:09 PM CET
Civil Twilight 8:01 AM CET 6:38 PM CET
Nautical Twilight 7:29 AM CET 7:11 PM CET
Astronomical Twilight 6:57 AM CET 7:42 PM CET
Moon 6:36 PM CET (12/17) 8:17 AM CET (12/17)
Length of Visible Light 10h 37m
Length of Day
9h 39m
Full, 100% of the Moon is Illuminated
Dec 17
Full
Dec 25
Last Quarter
Jan 1
New
Jan 8
First Quarter
Jan 16
Full

Hourly Weather History & Observations

Time (CET) Temp. Dew Point Humidity Pressure Visibility Wind Dir Wind Speed Gust Speed Precip Events Conditions
12:00 AM 51 °F 44 °F 70% 30.31 in - Calm Calm - -  
1:00 AM 51 °F 45 °F 74% 30.30 in - East 1.2 mph - -  
2:00 AM 51 °F 45 °F 72% 30.29 in - East 1.2 mph - -  
3:00 AM 53 °F 47 °F 73% 30.29 in - East 2.3 mph - -  
4:00 AM 51 °F 46 °F 75% 30.30 in 9 mi Calm Calm - -   Overcast
4:30 AM 50.0 °F 44.6 °F 82% 30.27 in - Variable 2.3 mph - N/A   Clear
5:00 AM 50 °F 45 °F 78% 30.30 in - North 2.3 mph - -  
5:00 AM 50.0 °F 46.4 °F 87% 30.27 in - North 3.5 mph - N/A   Clear
5:30 AM 50.0 °F 46.4 °F 87% 30.27 in - Variable 2.3 mph - N/A   Clear
6:00 AM 52 °F 47 °F 76% 30.30 in - NW 3.5 mph - -  
6:00 AM 51.8 °F 46.4 °F 82% 30.27 in 6.2 mi Variable 2.3 mph - N/A   Partly Cloudy
6:30 AM 51.8 °F 46.4 °F 82% 30.30 in 6.2 mi North 3.5 mph - N/A   Scattered Clouds
7:00 AM 51 °F 46 °F 77% 30.31 in 12 mi North 1.2 mph - -   Overcast
7:00 AM 51.8 °F 46.4 °F 82% 30.30 in 6.2 mi Variable 1.2 mph - N/A   Mostly Cloudy
7:30 AM 50.0 °F 46.4 °F 87% 30.30 in 6.2 mi Variable 1.2 mph - N/A   Scattered Clouds
8:00 AM 51 °F 46 °F 77% 30.32 in - NE 2.3 mph - -  
8:00 AM 51.8 °F 46.4 °F 82% 30.30 in 6.2 mi Variable 2.3 mph - N/A   Mostly Cloudy
8:30 AM 51.8 °F 46.4 °F 82% 30.30 in 6.2 mi Variable 2.3 mph - N/A   Mostly Cloudy
9:00 AM 53 °F 47 °F 75% 30.33 in - Calm Calm - -  
9:00 AM 53.6 °F 48.2 °F 82% 30.30 in 6.2 mi Variable 1.2 mph - N/A   Mostly Cloudy
9:30 AM 55.4 °F 48.2 °F 77% 30.33 in 6.2 mi Calm Calm - N/A   Mostly Cloudy
10:00 AM 56 °F 51 °F 77% 30.35 in 16 mi Calm Calm - -   Overcast
10:00 AM 57.2 °F 51.8 °F 82% 30.33 in 6.2 mi Variable 1.2 mph - N/A   Mostly Cloudy
10:30 AM 59.0 °F 51.8 °F 77% 30.33 in 6.2 mi Variable 1.2 mph - N/A   Mostly Cloudy
11:00 AM 60 °F 53 °F 72% 30.38 in - SSE 4.6 mph - -  
11:00 AM 60.8 °F 53.6 °F 77% 30.36 in 6.2 mi Variable 3.5 mph - N/A   Mostly Cloudy
11:30 AM 62.6 °F 53.6 °F 72% 30.36 in 6.2 mi SSE 8.1 mph - N/A   Mostly Cloudy
12:00 PM 64 °F 53 °F 59% 30.38 in - SSE 11.5 mph - -  
12:00 PM 62.6 °F 53.6 °F 72% 30.36 in 6.2 mi SSE 11.5 mph - N/A   Mostly Cloudy
12:30 PM 62.6 °F 53.6 °F 72% 30.36 in 6.2 mi SSE 13.8 mph - N/A   Mostly Cloudy
1:00 PM 64 °F 53 °F 58% 30.34 in 16 mi SSE 11.5 mph - -   Mostly Cloudy
1:00 PM 62.6 °F 53.6 °F 72% 30.33 in 6.2 mi SSE 11.5 mph - N/A   Mostly Cloudy
1:30 PM 64.4 °F 53.6 °F 68% 30.30 in 6.2 mi SSE 10.4 mph - N/A   Mostly Cloudy
2:00 PM 65 °F 53 °F 55% 30.31 in - South 11.5 mph - -  
2:00 PM 64.4 °F 53.6 °F 68% 30.30 in 6.2 mi South 10.4 mph - N/A   Mostly Cloudy
2:30 PM 62.6 °F 51.8 °F 68% 30.30 in 6.2 mi South 10.4 mph - N/A   Mostly Cloudy
3:00 PM 63 °F 53 °F 61% 30.29 in - South 11.5 mph - -  
3:00 PM 62.6 °F 53.6 °F 72% 30.27 in 6.2 mi SSE 10.4 mph - N/A   Mostly Cloudy
3:30 PM 62.6 °F 53.6 °F 72% 30.27 in 6.2 mi South 11.5 mph - N/A   Mostly Cloudy
4:00 PM 64 °F 54 °F 60% 30.31 in 12 mi South 10.4 mph - -   Overcast
4:00 PM 64.4 °F 53.6 °F 68% 30.30 in 6.2 mi South 10.4 mph - N/A   Mostly Cloudy
4:30 PM 62.6 °F 53.6 °F 72% 30.30 in 6.2 mi South 8.1 mph - N/A   Mostly Cloudy
4:44 PM 60.8 °F 55.4 °F 82% 30.30 in 3.7 mi South 8.1 mph - N/A Rain Rain
5:00 PM 60 °F 56 °F 81% 30.33 in - South 4.6 mph - -   Unknown Precipitation
5:00 PM 60.8 °F 55.4 °F 82% 30.30 in 5.6 mi South 5.8 mph - N/A Rain Light Rain
5:30 PM 59.0 °F 57.2 °F 94% 30.33 in 3.1 mi South 5.8 mph - N/A Rain Rain
5:35 PM 59.0 °F 57.2 °F 94% 30.33 in 1.2 mi South 5.8 mph - N/A Rain Rain
5:50 PM 59.0 °F 57.2 °F 94% 30.30 in 3.7 mi SSE 4.6 mph - N/A   Overcast
6:00 PM 59 °F 58 °F 94% 30.32 in - South 4.6 mph - -   Unknown Precipitation
6:00 PM 59.0 °F 57.2 °F 94% 30.30 in 5.6 mi South 4.6 mph - N/A Rain Light Rain
6:30 PM 59.0 °F 57.2 °F 94% 30.30 in 3.7 mi South 3.5 mph - N/A   Mostly Cloudy
7:00 PM 58 °F 58 °F 99% 30.34 in 4 mi SE 2.3 mph - -   Mist
7:00 PM 59.0 °F 57.2 °F 94% 30.33 in 3.7 mi Variable 1.2 mph - N/A   Mostly Cloudy
7:30 PM 59.0 °F 57.2 °F 94% 30.33 in 5.6 mi SSE 4.6 mph - N/A   Mostly Cloudy
8:00 PM 58 °F 57 °F 94% 30.34 in - SSE 4.6 mph - -   Unknown Precipitation
8:00 PM 57.2 °F 57.2 °F 100% 30.33 in 6.2 mi SSE 3.5 mph - N/A   Mostly Cloudy
8:30 PM 57.2 °F 57.2 °F 100% 30.33 in 6.2 mi Variable 2.3 mph - N/A   Mostly Cloudy
9:00 PM 57 °F 56 °F 97% 30.35 in - South 5.8 mph - -   Unknown Precipitation
9:00 PM 57.2 °F 57.2 °F 100% 30.33 in 6.2 mi South 5.8 mph - N/A   Scattered Clouds
9:30 PM 57.2 °F 57.2 °F 100% 30.33 in 6.2 mi South 6.9 mph - N/A   Scattered Clouds
10:00 PM 55 °F 55 °F 99% 30.35 in 5 mi South 2.3 mph - -   Mist
10:00 PM 55.4 °F 55.4 °F 100% 30.33 in 3.7 mi Variable 2.3 mph - N/A   Scattered Clouds
10:30 PM 55.4 °F 55.4 °F 100% 30.33 in 3.1 mi Variable 2.3 mph - N/A   Scattered Clouds
11:00 PM 55 °F 55 °F 98% 30.37 in - South 1.2 mph - -  
11:00 PM 55.4 °F 55.4 °F 100% 30.36 in 2.5 mi Variable 1.2 mph - N/A   Partly Cloudy